THY3UO LTAC-LTCK

Flight info

Callsign THY3UO
Flight time 1h 3m
Altitude 37000
Route GOBIT UL614 EZS UT368 BAYIR
Aircraft B738/M-SDE2E3FGHIRWXY/LB1

Departure

Time 2026-04-29 19:20
Airport Esenboğa International Airport (LTAC)

Arrival

Time 2026-04-29 20:23
Airport Muş Airport (LTCK)
Time Latitude Longitude Altitude Speed Heading
2026-04-29 19:03 40.11555 32.99031 3125 ft 0 kts 139°
2026-04-29 19:13 40.11559 32.99026 3125 ft 2 kts 139°
2026-04-29 19:14 40.11571 32.99012 3124 ft 2 kts 139°
2026-04-29 19:14 40.11583 32.98998 3125 ft 2 kts 133°
2026-04-29 19:14 40.11593 32.98981 3124 ft 2 kts 108°
2026-04-29 19:14 40.11595 32.98961 3122 ft 2 kts 73°
2026-04-29 19:15 40.11586 32.98943 3124 ft 2 kts 43°
2026-04-29 19:15 40.11580 32.98936 3124 ft 0 kts 43°
2026-04-29 19:16 40.11586 32.98942 3124 ft 2 kts 38°
2026-04-29 19:17 40.11620 32.98946 3120 ft 8 kts 338°
2026-04-29 19:17 40.11659 32.98887 3123 ft 9 kts 303°
2026-04-29 19:17 40.11692 32.98824 3123 ft 8 kts 306°
2026-04-29 19:17 40.11730 32.98756 3123 ft 11 kts 307°
2026-04-29 19:18 40.11777 32.98674 3126 ft 11 kts 307°
2026-04-29 19:18 40.11807 32.98621 3128 ft 11 kts 307°
2026-04-29 19:18 40.11864 32.98523 3131 ft 6 kts 307°
2026-04-29 19:18 40.11897 32.98488 3131 ft 7 kts 356°
2026-04-29 19:19 40.11937 32.98515 3130 ft 7 kts 36°
2026-04-29 19:19 40.11998 32.98572 3131 ft 30 kts 36°
2026-04-29 19:19 40.12362 32.98920 3126 ft 99 kts 36°
2026-04-29 19:19 40.13085 32.99610 3130 ft 156 kts 36°
2026-04-29 19:20 40.14065 33.00567 3397 ft 185 kts 37°
2026-04-29 19:20 40.15099 33.01638 4170 ft 193 kts 38°
2026-04-29 19:20 40.16145 33.02764 4929 ft 198 kts 39°
2026-04-29 19:20 40.17266 33.03988 5189 ft 223 kts 39°
2026-04-29 19:21 40.18516 33.05351 5426 ft 244 kts 39°
2026-04-29 19:21 40.19655 33.07051 5895 ft 256 kts 62°
2026-04-29 19:21 40.20183 33.09300 6539 ft 264 kts 84°
2026-04-29 19:21 40.20168 33.11769 7038 ft 281 kts 105°
2026-04-29 19:22 40.19232 33.14002 7801 ft 283 kts 129°
2026-04-29 19:22 40.17970 33.15999 8630 ft 287 kts 130°
2026-04-29 19:22 40.16677 33.18016 9430 ft 292 kts 130°
2026-04-29 19:22 40.15376 33.20078 10213 ft 297 kts 130°
2026-04-29 19:23 40.14033 33.22242 10524 ft 319 kts 130°
2026-04-29 19:23 40.12594 33.24591 10771 ft 341 kts 129°
2026-04-29 19:23 40.11097 33.27060 11326 ft 351 kts 129°
2026-04-29 19:23 40.09578 33.29573 12039 ft 355 kts 129°
2026-04-29 19:24 40.08035 33.32125 12732 ft 360 kts 129°
2026-04-29 19:24 40.06472 33.34707 13025 ft 364 kts 129°
2026-04-29 19:24 40.04909 33.37288 13055 ft 363 kts 129°
2026-04-29 19:24 40.03334 33.39882 13219 ft 368 kts 129°
2026-04-29 19:25 40.01751 33.42491 13900 ft 372 kts 129°
2026-04-29 19:25 40.00209 33.45223 14604 ft 376 kts 126°
2026-04-29 19:25 39.98733 33.48057 15281 ft 379 kts 125°
2026-04-29 19:25 39.97264 33.50941 15902 ft 384 kts 125°
2026-04-29 19:26 39.95777 33.53863 16560 ft 389 kts 125°
2026-04-29 19:26 39.94266 33.56809 17194 ft 394 kts 125°
2026-04-29 19:26 39.92727 33.59789 17812 ft 398 kts 126°
2026-04-29 19:26 39.91166 33.62793 18407 ft 403 kts 126°
2026-04-29 19:27 39.89582 33.65832 18942 ft 407 kts 126°
2026-04-29 19:27 39.87985 33.68889 19504 ft 410 kts 126°
2026-04-29 19:27 39.86371 33.71975 20069 ft 414 kts 126°
2026-04-29 19:27 39.84745 33.75080 20614 ft 417 kts 126°
2026-04-29 19:28 39.83104 33.78212 21136 ft 421 kts 126°
2026-04-29 19:28 39.81452 33.81365 21688 ft 423 kts 126°
2026-04-29 19:28 39.79785 33.84540 22202 ft 427 kts 126°
2026-04-29 19:28 39.78103 33.87743 22702 ft 431 kts 125°
2026-04-29 19:29 39.76684 33.91194 23149 ft 437 kts 112°
2026-04-29 19:29 39.75618 33.94906 23665 ft 440 kts 110°
2026-04-29 19:29 39.74618 33.98670 24073 ft 443 kts 109°
2026-04-29 19:29 39.73614 34.02467 24502 ft 445 kts 110°
2026-04-29 19:30 39.72585 34.06273 24933 ft 447 kts 110°
2026-04-29 19:30 39.71530 34.10079 25371 ft 449 kts 110°
2026-04-29 19:30 39.70453 34.13898 25773 ft 452 kts 110°
2026-04-29 19:30 39.69359 34.17740 26154 ft 455 kts 110°
2026-04-29 19:31 39.68252 34.21605 26539 ft 458 kts 110°
2026-04-29 19:31 39.67140 34.25484 26921 ft 460 kts 110°
2026-04-29 19:31 39.66020 34.29387 27296 ft 463 kts 110°
2026-04-29 19:31 39.64894 34.33312 27679 ft 465 kts 110°
2026-04-29 19:32 39.63765 34.37244 28049 ft 467 kts 110°
2026-04-29 19:32 39.62625 34.41206 28391 ft 470 kts 110°
2026-04-29 19:32 39.61480 34.45187 28716 ft 472 kts 110°
2026-04-29 19:32 39.60328 34.49191 29051 ft 475 kts 110°
2026-04-29 19:33 39.59171 34.53211 29380 ft 477 kts 110°
2026-04-29 19:33 39.58006 34.57257 29698 ft 480 kts 110°
2026-04-29 19:33 39.56837 34.61307 30026 ft 481 kts 110°
2026-04-29 19:33 39.55660 34.65378 30324 ft 483 kts 110°
2026-04-29 19:34 39.54479 34.69459 30578 ft 485 kts 110°
2026-04-29 19:34 39.53290 34.73560 30826 ft 487 kts 110°
2026-04-29 19:34 39.52095 34.77674 31072 ft 489 kts 110°
2026-04-29 19:34 39.50895 34.81800 31372 ft 489 kts 110°
2026-04-29 19:35 39.49695 34.85920 31752 ft 488 kts 110°
2026-04-29 19:35 39.48496 34.90028 32058 ft 488 kts 110°
2026-04-29 19:35 39.47297 34.94133 32338 ft 489 kts 110°
2026-04-29 19:35 39.46092 34.98250 32658 ft 488 kts 110°
2026-04-29 19:36 39.44890 35.02353 32996 ft 488 kts 110°
2026-04-29 19:36 39.43687 35.06452 33317 ft 487 kts 110°
2026-04-29 19:36 39.42481 35.10554 33615 ft 487 kts 110°
2026-04-29 19:36 39.41293 35.14592 33897 ft 487 kts 110°
2026-04-29 19:37 39.40085 35.18689 34139 ft 488 kts 110°
2026-04-29 19:37 39.39271 35.21467 34297 ft 489 kts 110°
2026-04-29 19:37 39.37694 35.26907 34632 ft 488 kts 110°
2026-04-29 19:37 39.36505 35.31022 34859 ft 488 kts 110°
2026-04-29 19:38 39.35316 35.35135 35076 ft 489 kts 110°
2026-04-29 19:38 39.34125 35.39250 35315 ft 489 kts 110°
2026-04-29 19:38 39.32933 35.43353 35562 ft 488 kts 111°
2026-04-29 19:38 39.31739 35.47451 35810 ft 487 kts 111°
2026-04-29 19:39 39.30543 35.51548 36019 ft 488 kts 111°
2026-04-29 19:39 39.29344 35.55649 36216 ft 488 kts 111°
2026-04-29 19:39 39.28145 35.59745 36458 ft 487 kts 111°
2026-04-29 19:39 39.26945 35.63835 36711 ft 487 kts 111°
2026-04-29 19:40 39.25746 35.67918 36898 ft 487 kts 111°
2026-04-29 19:40 39.24544 35.72005 37112 ft 487 kts 111°
2026-04-29 19:40 39.23336 35.76105 37074 ft 490 kts 111°
2026-04-29 19:41 39.20918 35.84295 37073 ft 487 kts 111°
2026-04-29 19:41 39.18530 35.92364 37088 ft 483 kts 111°
2026-04-29 19:42 39.16119 36.00484 37088 ft 480 kts 111°
2026-04-29 19:42 39.14519 36.08736 37107 ft 478 kts 99°
2026-04-29 19:43 39.13508 36.17191 37089 ft 477 kts 98°
2026-04-29 19:43 39.12496 36.25658 37085 ft 479 kts 98°
2026-04-29 19:44 39.11433 36.34142 37085 ft 481 kts 99°
2026-04-29 19:44 39.10337 36.42665 37089 ft 484 kts 99°
2026-04-29 19:45 39.09226 36.51220 37093 ft 486 kts 99°
2026-04-29 19:45 39.08105 36.59816 37085 ft 487 kts 99°
2026-04-29 19:46 39.06976 36.68427 37081 ft 489 kts 99°
2026-04-29 19:46 39.05839 36.77055 37080 ft 489 kts 99°
2026-04-29 19:47 39.04694 36.85685 37088 ft 489 kts 99°
2026-04-29 19:47 39.03545 36.94305 37071 ft 488 kts 99°
2026-04-29 19:48 39.02391 37.02900 37073 ft 487 kts 99°
2026-04-29 19:48 39.01234 37.11480 37063 ft 486 kts 99°
2026-04-29 19:49 39.00073 37.20035 37066 ft 485 kts 99°
2026-04-29 19:49 38.98908 37.28568 37058 ft 484 kts 100°
2026-04-29 19:50 38.97945 37.35584 37054 ft 483 kts 100°
2026-04-29 19:50 38.96766 37.44135 37065 ft 482 kts 100°
2026-04-29 19:51 38.95589 37.52624 37048 ft 483 kts 100°
2026-04-29 19:51 38.94406 37.61110 37034 ft 483 kts 100°
2026-04-29 19:52 38.93224 37.69536 37047 ft 484 kts 100°
2026-04-29 19:52 38.92015 37.78113 37047 ft 485 kts 100°
2026-04-29 19:53 38.90807 37.86633 37031 ft 485 kts 100°
2026-04-29 19:53 38.89595 37.95143 37038 ft 485 kts 100°
2026-04-29 19:54 38.87766 38.07879 37019 ft 487 kts 100°
2026-04-29 19:54 38.82086 38.47179 37064 ft 488 kts 100°
2026-04-29 19:55 38.74057 39.00898 37049 ft 491 kts 101°
2026-04-29 19:55 38.72738 39.09451 36996 ft 484 kts 101°
2026-04-29 19:56 38.71482 39.17849 36989 ft 478 kts 101°
2026-04-29 19:56 38.70487 39.26238 36998 ft 475 kts 93°
2026-04-29 19:57 38.70178 39.34685 36706 ft 479 kts 91°
2026-04-29 19:57 38.70036 39.38940 36244 ft 478 kts 92°
2026-04-29 19:57 38.69871 39.43122 35719 ft 476 kts 92°
2026-04-29 19:58 38.69680 39.47385 35339 ft 471 kts 92°
2026-04-29 19:58 38.69485 39.51550 34978 ft 466 kts 92°
2026-04-29 19:58 38.69294 39.55608 34652 ft 461 kts 92°
2026-04-29 19:58 38.69110 39.59679 34304 ft 456 kts 92°
2026-04-29 19:59 38.68930 39.63713 33926 ft 452 kts 92°
2026-04-29 19:59 38.68752 39.67713 33492 ft 448 kts 91°
2026-04-29 19:59 38.68575 39.71663 32982 ft 442 kts 91°
2026-04-29 19:59 38.68397 39.75572 32376 ft 438 kts 91°
2026-04-29 20:00 38.68221 39.79421 31790 ft 435 kts 91°
2026-04-29 20:00 38.68041 39.83327 31237 ft 431 kts 91°
2026-04-29 20:00 38.67863 39.87137 30759 ft 426 kts 91°
2026-04-29 20:00 38.67687 39.90894 30287 ft 421 kts 91°
2026-04-29 20:01 38.67513 39.94568 29752 ft 417 kts 91°
2026-04-29 20:01 38.67338 39.98250 29152 ft 413 kts 91°
2026-04-29 20:01 38.67164 40.01903 28498 ft 410 kts 91°
2026-04-29 20:01 38.66990 40.05532 27902 ft 407 kts 91°
2026-04-29 20:02 38.66816 40.09133 27324 ft 404 kts 91°
2026-04-29 20:02 38.66642 40.12715 26773 ft 401 kts 91°
2026-04-29 20:02 38.66469 40.16264 26221 ft 398 kts 91°
2026-04-29 20:02 38.66351 40.18651 25827 ft 397 kts 91°
2026-04-29 20:03 38.66121 40.23283 25256 ft 389 kts 91°
2026-04-29 20:03 38.65953 40.26690 24965 ft 380 kts 91°
2026-04-29 20:03 38.65788 40.30041 24598 ft 375 kts 91°
2026-04-29 20:03 38.65625 40.33357 24270 ft 373 kts 92°
2026-04-29 20:04 38.65462 40.36666 23891 ft 372 kts 92°
2026-04-29 20:04 38.65298 40.39971 23514 ft 372 kts 92°
2026-04-29 20:04 38.65134 40.43266 23113 ft 371 kts 92°
2026-04-29 20:04 38.64969 40.46548 22725 ft 369 kts 92°
2026-04-29 20:05 38.64804 40.49815 22344 ft 367 kts 92°
2026-04-29 20:05 38.64638 40.53062 21990 ft 365 kts 92°
2026-04-29 20:05 38.64473 40.56296 21631 ft 363 kts 92°
2026-04-29 20:05 38.64308 40.59498 21275 ft 360 kts 92°
2026-04-29 20:06 38.64143 40.62686 20929 ft 358 kts 92°
2026-04-29 20:06 38.63979 40.65848 20580 ft 356 kts 92°
2026-04-29 20:06 38.63814 40.69004 20225 ft 354 kts 92°
2026-04-29 20:06 38.63649 40.72140 19881 ft 353 kts 92°
2026-04-29 20:07 38.63486 40.75258 19537 ft 351 kts 92°
2026-04-29 20:07 38.63321 40.78371 19188 ft 350 kts 92°
2026-04-29 20:07 38.63155 40.81467 18853 ft 349 kts 92°
2026-04-29 20:07 38.62984 40.84551 18517 ft 348 kts 93°
2026-04-29 20:08 38.62800 40.87626 18160 ft 347 kts 93°
2026-04-29 20:08 38.62675 40.89668 17903 ft 346 kts 93°
2026-04-29 20:08 38.62424 40.93756 17406 ft 343 kts 93°
2026-04-29 20:08 38.62238 40.96789 17065 ft 340 kts 93°
2026-04-29 20:09 38.62054 40.99790 16729 ft 338 kts 93°
2026-04-29 20:09 38.61873 41.02773 16386 ft 335 kts 94°
2026-04-29 20:09 38.61691 41.05736 16049 ft 333 kts 94°
2026-04-29 20:09 38.61507 41.08679 15712 ft 331 kts 94°
2026-04-29 20:10 38.61325 41.11605 15380 ft 329 kts 94°
2026-04-29 20:10 38.61143 41.14516 15064 ft 328 kts 94°
2026-04-29 20:10 38.60962 41.17412 14729 ft 326 kts 94°
2026-04-29 20:10 38.60781 41.20296 14396 ft 325 kts 94°
2026-04-29 20:11 38.60600 41.23172 14073 ft 323 kts 94°
2026-04-29 20:11 38.60421 41.25992 13731 ft 322 kts 94°
2026-04-29 20:11 38.60241 41.28845 13370 ft 321 kts 94°
2026-04-29 20:11 38.60061 41.31674 13028 ft 318 kts 94°
2026-04-29 20:12 38.59881 41.34482 12686 ft 316 kts 94°
2026-04-29 20:12 38.59701 41.37270 12360 ft 314 kts 94°
2026-04-29 20:12 38.59790 41.40032 11990 ft 311 kts 72°
2026-04-29 20:12 38.60684 41.42489 11840 ft 303 kts 54°
2026-04-29 20:13 38.61940 41.44637 11667 ft 301 kts 50°
2026-04-29 20:13 38.62819 41.46049 11544 ft 300 kts 49°
2026-04-29 20:13 38.64554 41.48830 11316 ft 304 kts 50°
2026-04-29 20:13 38.65867 41.50968 11141 ft 307 kts 50°
2026-04-29 20:14 38.67165 41.53108 10950 ft 306 kts 50°
2026-04-29 20:14 38.68471 41.55277 10764 ft 305 kts 50°
2026-04-29 20:14 38.69762 41.57424 10595 ft 305 kts 50°
2026-04-29 20:14 38.71055 41.59570 10409 ft 304 kts 50°
2026-04-29 20:15 38.72420 41.61602 10196 ft 296 kts 36°
2026-04-29 20:15 38.74221 41.62630 10053 ft 278 kts
2026-04-29 20:15 38.76092 41.62399 10012 ft 269 kts 338°
2026-04-29 20:15 38.77686 41.61219 10003 ft 263 kts 318°
2026-04-29 20:16 38.78881 41.59425 9771 ft 268 kts 306°
2026-04-29 20:16 38.79966 41.57487 9614 ft 271 kts 305°
2026-04-29 20:16 38.81056 41.55519 9504 ft 270 kts 305°
2026-04-29 20:16 38.82148 41.53560 9232 ft 274 kts 306°
2026-04-29 20:17 38.83260 41.51580 9023 ft 271 kts 306°
2026-04-29 20:17 38.84346 41.49656 8877 ft 259 kts 306°
2026-04-29 20:17 38.85364 41.47856 8762 ft 240 kts 306°
2026-04-29 20:17 38.86299 41.46203 8634 ft 223 kts 306°
2026-04-29 20:18 38.87099 41.44602 8503 ft 204 kts 288°
2026-04-29 20:18 38.87094 41.42887 8523 ft 195 kts 252°
2026-04-29 20:18 38.86339 41.41441 8500 ft 199 kts 219°
2026-04-29 20:18 38.85071 41.40794 8492 ft 199 kts 183°
2026-04-29 20:19 38.83749 41.41209 8506 ft 199 kts 149°
2026-04-29 20:19 38.82818 41.42516 8500 ft 204 kts 115°
2026-04-29 20:19 38.82232 41.44223 8157 ft 214 kts 113°
2026-04-29 20:19 38.81660 41.45961 7819 ft 207 kts 113°
2026-04-29 20:20 38.81121 41.47638 7452 ft 200 kts 113°
2026-04-29 20:20 38.80600 41.49244 7166 ft 187 kts 113°
2026-04-29 20:20 38.80146 41.50758 6809 ft 178 kts 104°
2026-04-29 20:20 38.79913 41.52267 6527 ft 169 kts 104°
2026-04-29 20:21 38.79622 41.53716 6207 ft 168 kts 112°
2026-04-29 20:21 38.79171 41.55080 5864 ft 164 kts 117°
2026-04-29 20:21 38.78635 41.56351 5542 ft 160 kts 122°
2026-04-29 20:21 38.78107 41.57574 5286 ft 154 kts 118°
2026-04-29 20:22 38.77643 41.58791 5048 ft 151 kts 116°
2026-04-29 20:22 38.77177 41.59983 4852 ft 148 kts 117°
2026-04-29 20:22 38.76713 41.61169 4663 ft 150 kts 116°
2026-04-29 20:22 38.76247 41.62384 4492 ft 154 kts 117°
2026-04-29 20:23 38.75755 41.63613 4316 ft 156 kts 117°
2026-04-29 20:23 38.75274 41.64847 4168 ft 150 kts 116°
2026-04-29 20:23 38.74883 41.65860 4162 ft 97 kts 117°
2026-04-29 20:23 38.74668 41.66413 4166 ft 45 kts 116°
2026-04-29 20:24 38.74532 41.66762 4160 ft 43 kts 117°
2026-04-29 20:24 38.74403 41.67097 4158 ft 40 kts 116°
2026-04-29 20:24 38.74283 41.67397 4162 ft 35 kts 117°
2026-04-29 20:24 38.77327 41.59610 4914 ft 149 kts 117°
2026-04-29 20:25 38.76788 41.60973 4694 ft 149 kts 116°
2026-04-29 20:25 38.76235 41.62416 4485 ft 154 kts 117°
2026-04-29 20:25 38.75658 41.63866 4272 ft 156 kts 117°
2026-04-29 20:25 38.75118 41.65248 4167 ft 137 kts 116°